SCP
0 0 0 0 0 0 0 0 0 0 0 0 0 0 0 0 0 0 0 0 0 0 0 0 0 0 0 0 0 0 0 0 0 0 0 0 0 0 0 0 0 0 0 0
0 0 0 0 0 0 0 0 0 0 0 0 0 0 0 0 0 0 0 0 0 0 0 0 0 0 0 0 0 0 0 0 0 0 0 0 0 0 0 0 0 0 0 0
0 0 0 0 0 0 0 0 0 0 0 0 0 0 0 0 0 0 0 0 0 0 0 0 0 0 0 0 0 0 0 0 0 0 0 0 0 0 0 0 0 0 0 0
0 0 0 0 0 0 0 0 0 0 0 0 0 0 0 0 0 0 0 0 0 0 0 0 0 0 0 0 0 0 0 0 0 0 0 0 0 0 0 0 0 0 0 0
0 0 0 0 0 0 0 0 0 0 0 0 0 0 0 0 0 0 0 0 0 0 0 0 0 0 0 0 0 0 0 0 0 0 0 0 0 0 0 0 0 0 0 0
0 0 0 0 0 0 0 0 0 0 0 0 0 0 0 0 0 0 0 0 0 0 0 0 0 0 0 0 0 0 0 0 0 0 0 0 0 0 0 0 0 0 0 0
0 0 0 0 0 0 0 0 0 0 0 0 0 0 0 0 0 0 0 0 0 0 0 0 0 0 0 0 0 0 0 0 0 0 0 0 0 0 0 0 0 0 0 0
0 0 0 0 0 0 0 0 0 0 0 0 0 0 0 0 0 0 0 0 0 0 0 0 0 0 0 0 0 0 0 0 0 0 0 0 0 0 0 0 0 0 0 0
0 0 0 0 0 0 0 0 0 0 0 0 0 0 0 0 0 0 0 0 0 0 0 0 0 0 0 0 0 0 0 0 0 0 0 0 0 0 0 0 0 0 0 0
0 0 0 0 0 0 0 0 0 0 0 0 0 0 0 0 0 0 0 0 0 0 0 0 0 0 0 0 0 0 0 0 0 0 0 0 0 0 0 0 0 0 0 0
0 0 0 0 0 0 0 0 0 0 0 0 0 0 0 0 0 0 0 0 0 0 0 0 0 0 0 0 0 0 0 0 0 0 0 0 0 0 0 0 0 0 0 0
0 0 0 0 0 0 0 0 0 0 0 0 0 0 0 0 0 0 0 0 0 0 0 0 0 0 0 0 0 0 0 0 0 0 0 0 0 0 0 0 0 0 0 0
0 0 0 0 0 0 0 0 0 0 0 0 0 0 0 0 0 0 0 0 0 0 0 0 0 0 0 0 0 0 0 0 0 0 0 0 -0 0 0 0 0 0 0 0
0 0 0 0 0 0 0 0 0 0 0 0 0 0 0 0 0 0 0 0 0 0 0 0 0 0 0 0 0 0 0 0 0 0 0 0 0 0 0 -0 0 0 0 0
0 0 0 0 0 0 0 0 0 0 0 0 0 0 0 0 0 0 0 0 0 0 0 0 0 0 0 0 0 0 0 0 0 0 0 0 0 0 0 0 0 0 0 0
0 0 0 0 0 0 0 0 0 0 0 0 0 0 0 0 0 0 0 0 0 0 0 0 0 0 0 0 0 0 0 0 0 0 0 0 0 0 0 0 0 0 0 0
0 0 0 0 0 0 0 0 0 0 0 0 0 0 0 0 0 0 0 0 0 0 0 0 0 0 0 0 0 0 0 0 0 0 0 0 0 0 0 0 0 0 0 0
0 0 0 0 0 0 0 0 0 0 0 0 0 0 0 0 0 0 0 0 0 0 0 0 0 0 0 0 0 0 0 0 0 0 0 0 0 0 0 0 0 0 0 0
0 0 0 0 0 0 0 0 0 0 0 0 0 0 0 0 0 0 0 0 0 0 0 0 0 0 0 0 0 0 0 0 0 0 0 0 0 0 0 0 0 0 0 0
0 0 0 0 0 0 0 0 0 0 0 0 0 0 0 0 0 0 0 0 0 0 0 0 0 0 0 0 0 0 0 0 0 0 0 0 0 0 0 0 0 0 0 0
0 0 0 0 0 0 0 0 0 0 0 0 0 0 0 0 0 0 0 0 0 0 0 0 0 0 0 0 0 0 0 0 0 0 0 0 0 0 0 0 0 0 0 0
0 0 0 0 0 0 0 0 0 0 0 0 0 0 0 0 0 0 0 0 0 0 0 0 0 0 0 0 0 0 0 0 0 0 0 0 0 0 0 0 0 0 0 0
0 0 0 0 0 0 0 0 0 0 0 0 0 0 0 0 0 0 0 0 0 0 0 0 0 0 0 0 0 0 0 0 0 0 0 0 0 0 0 0 0 0 0 0
0 0 0 0 0 0 0 0 0 0 0 0 0 0 0 0 0 0 0 0 0 0 0 0 0 0 0 0 0 0 0 0 0 0 0 0 0 0 0 0 0 0 0 -0
0 0 0 0 0 0 0 0 0 0 0 0 0 0 0 0 0 0 0 0 0 0 0 0 0 0 0 0 0 0 0 0 0 0 0 0 0 0 0 0 0 0 -0 -0
0 0 0 0 0 0 0 0 0 0 0 0 0 0 0 0 0 0 0 0 0 0 0 0 0 0 0 0 0 0 0 0 0 0 0 0 0 0 0 0 0 0 0 0
0 0 0 0 0 0 0 0 0 0 0 0 0 0 0 0 0 0 0 0 0 0 0 0 0 0 0 0 0 0 0 0 0 0 0 0 0 0 0 0 0 0 0 0
Wind_Speed_500mb
8 7 5 13 26 31 27 33 18 49 38 35 24 14 24 32 36 30 22 28 35 52 59 72 64 75 61 42 45 46 51 55 64 61 58 53 52 49 49 50 51 55 58 58
7 13 18 26 34 31 34 35 32 41 44 17 4 15 32 34 27 16 19 25 34 40 46 49 43 40 42 50 50 54 55 58 61 60 56 54 53 52 52 53 54 51 47 46
11 10 10 24 26 34 28 22 15 21 16 3 7 15 20 25 29 29 27 30 31 35 36 37 42 48 51 54 60 62 66 64 63 65 61 60 58 57 57 55 53 51 48 44
9 6 20 13 1 15 30 27 20 5 6 7 5 5 9 18 25 33 34 35 35 37 39 40 45 53 59 65 72 76 76 74 74 73 76 73 70 70 65 59 57 54 53 47
5 15 30 23 9 8 13 12 6 7 9 4 5 3 16 27 23 28 27 29 32 35 38 40 41 44 50 54 57 60 60 63 67 69 79 86 85 91 79 66 60 56 53 52
5 8 12 1 5 5 3 14 7 10 7 3 3 6 3 24 20 21 25 29 33 36 38 41 46 50 54 54 53 56 56 59 62 65 71 80 80 80 91 74 62 53 52 50
13 9 15 4 5 3 5 9 5 5 2 5 7 6 5 12 20 24 29 35 39 44 50 53 57 61 65 67 67 68 72 74 76 75 76 69 71 79 75 81 65 52 55 51
6 9 18 7 4 11 2 4 5 9 9 13 17 10 7 14 21 28 37 40 45 49 50 51 57 63 63 62 64 71 74 74 73 72 72 75 77 70 75 80 69 61 53 51
16 11 7 5 10 4 5 7 12 11 5 17 11 9 9 18 28 30 35 41 45 47 50 53 54 55 59 63 69 74 76 77 79 77 77 73 73 73 77 83 78 67 56 51
4 5 11 14 16 17 15 9 7 15 15 8 8 7 9 18 22 28 33 38 41 43 44 49 52 51 53 57 61 64 69 71 75 75 77 74 77 74 70 79 78 71 53 49
8 7 8 16 17 22 22 22 22 16 10 6 3 3 7 14 18 23 28 30 33 40 44 43 43 47 50 52 57 63 68 70 73 76 74 73 72 72 72 77 76 62 44 36
13 26 12 17 33 30 27 22 18 11 8 4 3 5 6 9 15 18 23 32 37 38 41 43 41 44 50 56 61 64 67 69 71 76 75 76 76 79 64 49 45 39 37 34
13 26 28 37 38 31 28 27 20 11 5 2 3 5 8 10 12 21 28 31 35 37 38 40 41 39 54 62 67 71 72 70 72 75 76 71 68 67 74 59 40 35 41 37
34 38 29 43 25 35 29 25 17 11 8 6 7 8 10 15 17 23 28 30 32 35 40 43 48 56 63 67 68 69 66 59 67 71 75 76 64 55 50 51 52 42 34 36
45 29 15 37 42 36 28 22 18 13 10 10 9 9 12 16 20 24 26 29 35 39 39 44 56 61 65 68 69 70 68 67 80 82 75 70 69 57 53 44 37 34 25 6
39 26 31 47 47 37 30 24 18 17 13 10 6 7 12 16 20 23 29 36 39 39 36 50 57 61 64 67 69 73 74 71 74 74 72 64 62 58 50 54 53 47 34 26
47 41 50 50 47 41 31 24 20 18 13 7 4 7 13 17 21 28 33 33 35 37 44 52 57 61 64 67 69 74 79 79 74 66 55 57 57 57 55 50 51 50 49 47
34 43 51 44 48 41 35 31 25 16 10 2 4 11 13 20 27 29 30 35 38 42 50 54 59 64 66 67 71 76 78 77 73 65 56 58 58 55 49 47 47 49 53 52
43 41 45 39 37 34 35 33 23 14 5 2 8 11 18 26 24 28 33 38 43 53 57 58 62 65 68 71 73 76 78 78 75 69 61 49 53 50 48 50 47 46 44 42
49 46 42 40 36 35 35 28 21 10 3 4 9 15 22 22 24 29 36 39 44 50 56 60 63 67 70 74 75 77 78 79 77 70 65 56 57 59 59 53 44 46 47 44
57 51 45 42 41 35 28 25 15 7 3 8 12 18 19 22 26 34 37 40 46 50 54 58 63 67 71 75 77 78 79 80 74 66 64 55 55 51 50 43 48 50 51 50
56 52 47 44 40 36 29 20 12 5 6 11 15 17 18 21 27 33 38 43 49 52 56 59 62 65 70 73 76 78 81 77 68 62 66 62 57 51 49 45 53 50 44 40
54 48 46 42 40 33 25 18 11 6 8 12 14 17 20 26 32 34 39 40 46 51 54 58 60 64 68 73 76 79 82 76 68 62 68 66 60 54 46 50 55 50 44 37
52 47 43 41 36 29 27 19 11 8 9 11 13 18 21 25 28 33 38 42 46 49 52 56 59 62 67 72 77 79 81 78 71 67 66 63 59 54 50 48 52 51 50 45
48 47 46 41 35 30 22 15 12 10 11 11 14 17 20 25 30 34 38 41 45 48 51 53 57 61 66 71 76 78 81 82 77 72 69 65 61 57 53 50 48 51 53 52
51 47 40 31 27 26 19 15 12 12 13 13 14 17 21 26 30 33 37 40 43 46 49 53 56 61 66 70 74 79 80 84 86 80 72 67 62 57 54 52 50 48 47 48
44 40 38 36 32 25 20 16 13 12 13 13 14 19 22 26 29 33 36 38 41 44 47 50 53 58 64 68 73 77 81 84 87 88 83 78 70 63 56 52 50 48 47 46
Wind_Direction_500mb
243 239 181 229 238 251 214 239 234 274 273 282 309 322 330 342 338 317 262 230 231 247 266 274 277 279 278 268 285 295 306 304 312 305 300 303 302 297 297 293 289 276 274 275
268 233 226 253 246 235 243 248 257 271 277 301 68 29 14 12 10 337 313 305 315 305 296 300 297 289 282 290 291 301 298 298 307 300 298 300 302 298 295 296 295 287 277 275
274 212 272 279 232 224 239 227 214 253 261 35 39 30 23 25 43 41 32 17 2 354 340 323 308 297 295 300 301 299 293 292 298 298 292 293 294 292 294 294 292 289 280 276
282 70 268 254 21 241 230 247 238 270 108 90 69 49 55 45 31 12 4 352 342 333 325 318 312 307 301 296 294 294 293 292 292 295 291 288 285 285 287 290 289 288 284 279
245 255 284 292 318 192 198 265 198 162 120 86 18 76 67 22 5 353 345 341 340 332 325 316 310 308 303 303 303 297 295 294 295 294 289 287 286 283 279 278 283 283 283 282
125 251 258 230 245 21 354 279 148 126 145 111 17 64 341 354 5 5 1 354 349 348 345 339 337 333 331 331 334 334 328 320 315 312 306 297 292 289 276 270 273 276 278 279
234 262 277 274 160 81 112 309 128 154 111 78 67 97 97 9 6 359 355 355 352 351 350 346 341 337 336 336 333 328 324 321 320 318 310 310 312 304 278 262 260 265 272 275
193 222 272 43 76 171 157 83 72 100 78 101 126 109 35 6 360 350 344 345 344 344 345 343 340 340 341 341 335 332 330 325 317 317 320 320 308 301 293 262 249 262 260 265
190 219 110 102 128 161 315 149 108 84 129 151 124 69 16 349 343 348 345 343 344 344 339 337 340 344 342 339 336 335 333 332 332 324 324 326 321 308 297 276 248 249 252 261
50 199 205 205 234 247 255 226 195 178 154 137 95 52 350 331 335 338 340 343 338 335 342 346 346 343 342 341 341 340 338 338 338 336 336 332 334 321 306 275 249 245 247 255
247 252 175 231 209 178 165 164 159 150 137 108 54 14 317 323 336 341 341 338 347 349 344 343 345 344 342 342 341 340 339 339 340 342 339 340 342 341 307 282 258 244 252 255
240 214 175 166 175 178 169 177 170 166 134 100 10 341 334 355 351 347 353 352 345 340 340 340 339 344 335 339 340 340 338 337 336 337 338 341 337 342 348 307 265 259 250 250
234 191 199 167 168 176 187 166 166 168 150 107 69 49 26 9 9 3 354 346 342 342 343 343 344 336 332 333 333 331 329 329 328 328 330 337 340 343 341 340 334 284 258 246
209 170 136 169 174 173 174 167 166 153 132 121 101 68 50 36 8 350 346 343 345 344 344 341 340 337 335 335 337 336 335 329 327 327 325 324 327 334 345 338 339 335 306 278
179 188 212 184 172 170 173 172 167 157 141 117 87 61 29 0 351 345 342 344 343 344 343 341 340 342 341 340 340 339 337 330 327 327 326 323 318 312 315 327 333 333 341 286
181 193 184 181 177 177 178 177 181 159 139 115 98 37 1 353 344 339 344 344 347 349 345 342 340 342 341 341 339 338 337 333 329 326 324 325 324 322 309 306 308 312 314 318
158 158 173 176 181 182 184 180 172 156 144 140 66 359 348 343 334 345 349 352 354 350 344 342 342 342 342 340 339 339 339 337 336 331 328 326 322 321 316 308 303 302 301 301
212 200 193 194 185 181 179 174 165 158 159 126 356 352 330 326 343 345 352 353 348 345 349 348 345 343 341 340 340 340 339 338 337 332 322 318 317 317 319 317 310 303 299 296
200 196 185 187 186 181 175 168 167 164 171 289 339 312 323 335 341 350 352 351 347 348 350 348 345 343 342 342 340 338 338 338 336 333 328 319 316 313 317 318 318 314 311 305
179 183 181 177 174 175 168 169 169 175 204 299 292 318 327 337 346 352 351 352 352 349 348 347 344 344 343 342 340 338 338 338 335 330 328 319 312 309 304 299 306 305 306 307
176 175 175 173 169 169 171 170 174 170 258 277 308 322 338 344 345 348 350 351 353 350 349 348 347 345 343 342 341 340 340 338 334 332 334 326 321 318 319 311 309 311 305 300
174 173 172 171 171 170 171 174 179 201 265 295 315 331 341 342 344 348 352 352 352 351 350 349 348 346 344 344 344 344 343 340 336 336 327 328 316 312 315 317 308 312 315 312
173 170 169 171 172 171 170 181 196 234 283 306 321 335 339 343 343 345 350 353 351 351 350 348 347 347 347 348 348 349 347 344 342 336 326 329 325 316 298 299 302 306 302 308
169 168 168 170 172 176 181 189 206 245 284 298 324 333 332 334 339 343 349 351 350 350 350 348 349 350 351 352 353 352 351 351 347 340 336 331 329 325 321 306 299 296 291 289
169 169 173 175 179 181 185 198 222 257 276 291 312 318 326 333 339 345 350 350 350 349 350 350 352 353 355 356 357 355 356 356 354 348 343 338 333 328 324 317 310 303 294 285
173 175 177 181 182 184 195 211 234 257 267 288 308 320 330 336 339 343 346 347 349 350 350 352 353 355 357 358 359 359 360 0 359 356 350 346 341 334 327 322 317 312 305 296
174 176 177 178 184 196 206 223 246 266 272 296 315 324 328 334 336 339 343 345 348 351 352 353 354 356 357 358 359 1 3 3 3 0 360 356 350 344 337 330 325 320 315 308
Wind_Speed_850mb
8 7 5 13 26 31 27 33 18 49 38 35 24 14 24 32 36 30 22 28 35 52 59 72 64 75 61 42 45 46 51 55 64 61 58 53 52 49 49 50 51 55 58 58
7 13 18 26 34 31 34 35 32 41 44 17 4 15 32 34 27 16 19 25 34 40 46 49 43 40 42 50 50 54 55 58 61 60 56 54 53 52 52 53 54 51 47 46
11 10 10 24 26 34 28 22 15 21 16 3 7 15 20 25 29 29 27 30 31 35 36 37 42 48 51 54 60 62 66 64 63 65 61 60 58 57 57 55 53 51 48 44
9 6 20 13 1 15 30 27 20 5 6 7 5 5 9 18 25 33 34 35 35 37 39 40 45 53 59 65 72 76 76 74 74 73 76 73 70 70 65 59 57 54 53 47
5 15 30 23 9 8 13 12 6 7 9 4 5 3 16 27 23 28 27 29 32 35 38 40 41 44 50 54 57 60 60 63 67 69 79 86 85 91 79 66 60 56 53 52
5 8 12 1 5 5 3 14 7 10 7 3 3 6 3 24 20 21 25 29 33 36 38 41 46 50 54 54 53 56 56 59 62 65 71 80 80 80 91 74 62 53 52 50
13 9 15 4 5 3 5 9 5 5 2 5 7 6 5 12 20 24 29 35 39 44 50 53 57 61 65 67 67 68 72 74 76 75 76 69 71 79 75 81 65 52 55 51
6 9 18 7 4 11 2 4 5 9 9 13 17 10 7 14 21 28 37 40 45 49 50 51 57 63 63 62 64 71 74 74 73 72 72 75 77 70 75 80 69 61 53 51
16 11 7 5 10 4 5 7 12 11 5 17 11 9 9 18 28 30 35 41 45 47 50 53 54 55 59 63 69 74 76 77 79 77 77 73 73 73 77 83 78 67 56 51
4 5 11 14 16 17 15 9 7 15 15 8 8 7 9 18 22 28 33 38 41 43 44 49 52 51 53 57 61 64 69 71 75 75 77 74 77 74 70 79 78 71 53 49
8 7 8 16 17 22 22 22 22 16 10 6 3 3 7 14 18 23 28 30 33 40 44 43 43 47 50 52 57 63 68 70 73 76 74 73 72 72 72 77 76 62 44 36
13 26 12 17 33 30 27 22 18 11 8 4 3 5 6 9 15 18 23 32 37 38 41 43 41 44 50 56 61 64 67 69 71 76 75 76 76 79 64 49 45 39 37 34
13 26 28 37 38 31 28 27 20 11 5 2 3 5 8 10 12 21 28 31 35 37 38 40 41 39 54 62 67 71 72 70 72 75 76 71 68 67 74 59 40 35 41 37
34 38 29 43 25 35 29 25 17 11 8 6 7 8 10 15 17 23 28 30 32 35 40 43 48 56 63 67 68 69 66 59 67 71 75 76 64 55 50 51 52 42 34 36
45 29 15 37 42 36 28 22 18 13 10 10 9 9 12 16 20 24 26 29 35 39 39 44 56 61 65 68 69 70 68 67 80 82 75 70 69 57 53 44 37 34 25 6
39 26 31 47 47 37 30 24 18 17 13 10 6 7 12 16 20 23 29 36 39 39 36 50 57 61 64 67 69 73 74 71 74 74 72 64 62 58 50 54 53 47 34 26
47 41 50 50 47 41 31 24 20 18 13 7 4 7 13 17 21 28 33 33 35 37 44 52 57 61 64 67 69 74 79 79 74 66 55 57 57 57 55 50 51 50 49 47
34 43 51 44 48 41 35 31 25 16 10 2 4 11 13 20 27 29 30 35 38 42 50 54 59 64 66 67 71 76 78 77 73 65 56 58 58 55 49 47 47 49 53 52
43 41 45 39 37 34 35 33 23 14 5 2 8 11 18 26 24 28 33 38 43 53 57 58 62 65 68 71 73 76 78 78 75 69 61 49 53 50 48 50 47 46 44 42
49 46 42 40 36 35 35 28 21 10 3 4 9 15 22 22 24 29 36 39 44 50 56 60 63 67 70 74 75 77 78 79 77 70 65 56 57 59 59 53 44 46 47 44
57 51 45 42 41 35 28 25 15 7 3 8 12 18 19 22 26 34 37 40 46 50 54 58 63 67 71 75 77 78 79 80 74 66 64 55 55 51 50 43 48 50 51 50
56 52 47 44 40 36 29 20 12 5 6 11 15 17 18 21 27 33 38 43 49 52 56 59 62 65 70 73 76 78 81 77 68 62 66 62 57 51 49 45 53 50 44 40
54 48 46 42 40 33 25 18 11 6 8 12 14 17 20 26 32 34 39 40 46 51 54 58 60 64 68 73 76 79 82 76 68 62 68 66 60 54 46 50 55 50 44 37
52 47 43 41 36 29 27 19 11 8 9 11 13 18 21 25 28 33 38 42 46 49 52 56 59 62 67 72 77 79 81 78 71 67 66 63 59 54 50 48 52 51 50 45
48 47 46 41 35 30 22 15 12 10 11 11 14 17 20 25 30 34 38 41 45 48 51 53 57 61 66 71 76 78 81 82 77 72 69 65 61 57 53 50 48 51 53 52
51 47 40 31 27 26 19 15 12 12 13 13 14 17 21 26 30 33 37 40 43 46 49 53 56 61 66 70 74 79 80 84 86 80 72 67 62 57 54 52 50 48 47 48
44 40 38 36 32 25 20 16 13 12 13 13 14 19 22 26 29 33 36 38 41 44 47 50 53 58 64 68 73 77 81 84 87 88 83 78 70 63 56 52 50 48 47 46
Wind_Direction_850mb
243 239 181 229 238 251 214 239 234 274 273 282 309 322 330 342 338 317 262 230 231 247 266 274 277 279 278 268 285 295 306 304 312 305 300 303 302 297 297 293 289 276 274 275
268 233 226 253 246 235 243 248 257 271 277 301 68 29 14 12 10 337 313 305 315 305 296 300 297 289 282 290 291 301 298 298 307 300 298 300 302 298 295 296 295 287 277 275
274 212 272 279 232 224 239 227 214 253 261 35 39 30 23 25 43 41 32 17 2 354 340 323 308 297 295 300 301 299 293 292 298 298 292 293 294 292 294 294 292 289 280 276
282 70 268 254 21 241 230 247 238 270 108 90 69 49 55 45 31 12 4 352 342 333 325 318 312 307 301 296 294 294 293 292 292 295 291 288 285 285 287 290 289 288 284 279
245 255 284 292 318 192 198 265 198 162 120 86 18 76 67 22 5 353 345 341 340 332 325 316 310 308 303 303 303 297 295 294 295 294 289 287 286 283 279 278 283 283 283 282
125 251 258 230 245 21 354 279 148 126 145 111 17 64 341 354 5 5 1 354 349 348 345 339 337 333 331 331 334 334 328 320 315 312 306 297 292 289 276 270 273 276 278 279
234 262 277 274 160 81 112 309 128 154 111 78 67 97 97 9 6 359 355 355 352 351 350 346 341 337 336 336 333 328 324 321 320 318 310 310 312 304 278 262 260 265 272 275
193 222 272 43 76 171 157 83 72 100 78 101 126 109 35 6 360 350 344 345 344 344 345 343 340 340 341 341 335 332 330 325 317 317 320 320 308 301 293 262 249 262 260 265
190 219 110 102 128 161 315 149 108 84 129 151 124 69 16 349 343 348 345 343 344 344 339 337 340 344 342 339 336 335 333 332 332 324 324 326 321 308 297 276 248 249 252 261
50 199 205 205 234 247 255 226 195 178 154 137 95 52 350 331 335 338 340 343 338 335 342 346 346 343 342 341 341 340 338 338 338 336 336 332 334 321 306 275 249 245 247 255
247 252 175 231 209 178 165 164 159 150 137 108 54 14 317 323 336 341 341 338 347 349 344 343 345 344 342 342 341 340 339 339 340 342 339 340 342 341 307 282 258 244 252 255
240 214 175 166 175 178 169 177 170 166 134 100 10 341 334 355 351 347 353 352 345 340 340 340 339 344 335 339 340 340 338 337 336 337 338 341 337 342 348 307 265 259 250 250
234 191 199 167 168 176 187 166 166 168 150 107 69 49 26 9 9 3 354 346 342 342 343 343 344 336 332 333 333 331 329 329 328 328 330 337 340 343 341 340 334 284 258 246
209 170 136 169 174 173 174 167 166 153 132 121 101 68 50 36 8 350 346 343 345 344 344 341 340 337 335 335 337 336 335 329 327 327 325 324 327 334 345 338 339 335 306 278
179 188 212 184 172 170 173 172 167 157 141 117 87 61 29 0 351 345 342 344 343 344 343 341 340 342 341 340 340 339 337 330 327 327 326 323 318 312 315 327 333 333 341 286
181 193 184 181 177 177 178 177 181 159 139 115 98 37 1 353 344 339 344 344 347 349 345 342 340 342 341 341 339 338 337 333 329 326 324 325 324 322 309 306 308 312 314 318
158 158 173 176 181 182 184 180 172 156 144 140 66 359 348 343 334 345 349 352 354 350 344 342 342 342 342 340 339 339 339 337 336 331 328 326 322 321 316 308 303 302 301 301
212 200 193 194 185 181 179 174 165 158 159 126 356 352 330 326 343 345 352 353 348 345 349 348 345 343 341 340 340 340 339 338 337 332 322 318 317 317 319 317 310 303 299 296
200 196 185 187 186 181 175 168 167 164 171 289 339 312 323 335 341 350 352 351 347 348 350 348 345 343 342 342 340 338 338 338 336 333 328 319 316 313 317 318 318 314 311 305
179 183 181 177 174 175 168 169 169 175 204 299 292 318 327 337 346 352 351 352 352 349 348 347 344 344 343 342 340 338 338 338 335 330 328 319 312 309 304 299 306 305 306 307
176 175 175 173 169 169 171 170 174 170 258 277 308 322 338 344 345 348 350 351 353 350 349 348 347 345 343 342 341 340 340 338 334 332 334 326 321 318 319 311 309 311 305 300
174 173 172 171 171 170 171 174 179 201 265 295 315 331 341 342 344 348 352 352 352 351 350 349 348 346 344 344 344 344 343 340 336 336 327 328 316 312 315 317 308 312 315 312
173 170 169 171 172 171 170 181 196 234 283 306 321 335 339 343 343 345 350 353 351 351 350 348 347 347 347 348 348 349 347 344 342 336 326 329 325 316 298 299 302 306 302 308
169 168 168 170 172 176 181 189 206 245 284 298 324 333 332 334 339 343 349 351 350 350 350 348 349 350 351 352 353 352 351 351 347 340 336 331 329 325 321 306 299 296 291 289
169 169 173 175 179 181 185 198 222 257 276 291 312 318 326 333 339 345 350 350 350 349 350 350 352 353 355 356 357 355 356 356 354 348 343 338 333 328 324 317 310 303 294 285
173 175 177 181 182 184 195 211 234 257 267 288 308 320 330 336 339 343 346 347 349 350 350 352 353 355 357 358 359 359 360 0 359 356 350 346 341 334 327 322 317 312 305 296
174 176 177 178 184 196 206 223 246 266 272 296 315 324 328 334 336 339 343 345 348 351 352 353 354 356 357 358 359 1 3 3 3 0 360 356 350 344 337 330 325 320 315 308